Weather Roundup
Issued by NWS Chicago, IL

Home | Current Version | Previous Version | Graphics & Text | Print | Product List | Glossary On
Versions: 1 2 3 4 5 6 7 8 9 10 11 12 13 14 15 16 17 18 19 20 21 22 23 24 25 26 27 28 29 30 31 32 33 34 35 36 37 38 39 40 41 42 43 44 45 46 47 48 49 50
000
NZUS59 KLOT 270610
HRRLOT

CHICAGO AREA WEATHER ROUNDUP
NATIONAL WEATHER SERVICE CHICAGO/ROMEOVILLE IL
1200 AM CST FRI FEB 27 2015

NOTE: "FAIR" INDICATES FEW OR NO CLOUDS BELOW 12,000 FEET WITH NO
SIGNIFICANT WEATHER AND/OR OBSTRUCTIONS TO VISIBILITY.

* THESE STATIONS ARE NOT UNDER NWS QUALITY CONTROL. THEY ALSO MAY NOT
  REPORT WEATHER SUCH AS PRECIPITATION OR FOG.

ILZ005-006-012>014-019>023-270700-
NORTHEAST ILLINOIS

CITY           SKY/WX    TMP DP  RH WIND       PRES   REMARKS
OHARE          PTCLDY     1  -8  66 NW7       30.42R WCI -12
6HR MIN TEMP:   0; 6HR MAX TEMP:  11;

MIDWAY         PTCLDY     7  -4  60 NW7       30.43S WCI  -5
6HR MIN TEMP:   7; 6HR MAX TEMP:  16;

AURORA         CLEAR     -9 -16  71 CALM      30.44S
6HR MIN TEMP: -11; 6HR MAX TEMP:   5;

LANSING*       CLEAR      1  -5  73 W5        30.43R WCI  -8
JOLIET*        CLEAR      1  -7  71 CALM      30.45S
WAUKEGAN       CLEAR     -1  -8  72 W5        30.42R WCI -11
6HR MIN TEMP:  -3; 6HR MAX TEMP:  10;

DUPAGE AIRPORT CLEAR     -2 -11  65 NW7       30.42S WCI -15
6HR MIN TEMP:  -3; 6HR MAX TEMP:  10;

WHEELING       CLEAR      3  -7  63 NW5       30.45R WCI  -6
6HR MIN TEMP:   2; 6HR MAX TEMP:  12;

KANKAKEE*      CLEAR     -4  -9  77 W5        30.45R WCI -15
MORRIS*        CLEAR     -8 -12  81 NW7       30.45S WCI -23
LEWIS AIRPORT* CLEAR      1  -6  72 NW5       30.44R WCI  -8
NORTHERLY IS     N/A     12  -3  51 NW10        N/A  WCI  -1
$$

WIZ051-052-058>065-066-070>072-270700-
SOUTHEAST WISCONSIN

CITY           SKY/WX    TMP DP  RH WIND       PRES   REMARKS
MILWAUKEE      CLEAR      6  -5  60 NW6       30.42S WCI  -4
6HR MIN TEMP:   5; 6HR MAX TEMP:  11;

KENOSHA*       CLEAR     -6 -11  79 W6        30.42R WCI -19
RACINE*        CLEAR      2  -8  63 W6        30.44R WCI  -9
BURLINGTON     CLEAR    -13 -17  82 CALM      30.42S
WAUKESHA       CLEAR      1  -8  66 W6        30.42S WCI -10
WEST BEND      PTCLDY     3  -8  60 W5        30.40S WCI  -6
$$

INZ001>003-010>013-019-020-270700-
NORTHWEST INDIANA

CITY           SKY/WX    TMP DP  RH WIND       PRES   REMARKS
GARY*          PTCLDY     7  -7  52 W8        30.42S WCI  -5
6HR MIN TEMP:   7; 6HR MAX TEMP:  17;

MICHIGAN CITY* NOT AVBL
RENSSELAER*    NOT AVBL
VALPARAISO     PTCLDY     4  -3  73 W9        30.39R WCI -10
$$

LMZ740>746-270700-
SOUTHERN LAKE MICHIGAN

STATION/POSITION TIME  SKY/WX   TEMP WIND        PRES    VSBY
                                AIR  DIR/SP/G
                 (UTC)          (F)  (DEG/KT/KT) (MB)    (MI)
HARRISON CRIB    0600            11  310/ 14/ 16   N/A
BURNHAM HARBOR   0600            12  320/  7/ 11   N/A
CALUMET HARBOR   0600             9  280/  7/ 10 1028.7R
BURNS HARBOR     NOT AVBL
MICHIGAN CITY    0600            12   40/  6/  7   N/A
$$

ABBREVIATIONS USED IN REMARKS
   TC - TEMPERATURE IN CELSIUS
  WCI - WIND CHILL INDEX
   HX - HEAT INDEX
  VSB - VISIBILITY
$$



USA.gov is the U.S. government's official web portal to all federal, state and local government web resources and services.